Weather History for Lima, OH

Change the Weather History Date:

Saturday, June 22, 2013

  Actual Average (KFDY) Record (KFDY)
Temperature  
Mean Temperature 80 °F -  
Max Temperature 91 °F 79 °F 99 °F (1988)
Min Temperature 70 °F 60 °F 43 °F (1992)
Cooling Degree Days 15    
Growing Degree Days 30 (Base 50)    
Moisture  
Dew Point 64 °F    
Average Humidity 60    
Maximum Humidity 73    
Minimum Humidity 39    
Precipitation  
Precipitation 0.00 in - - ()
Sea Level Pressure  
Sea Level Pressure 30.09 in    
Wind  
Wind Speed 8 mph (SSW)    
Max Wind Speed 14 mph    
Max Gust Speed 24 mph    
Visibility 10 miles    
Events      
Averages and records for this station are not official NWS values.
T = Trace of Precipitation, MM = Missing Value Source: NWS Daily Summary

Daily Weather History Graph

Daily Weather History Graph

Search for Another Location

Airport:

Trip Planner

Search our weather history database for the weather conditions in past years. The results will help you decide how hot, cold, wet, or windy it might be!

Date:

Astronomy

Jun. 22, 2013 Rise Set
Actual Time 6:05 AM EDT 9:10 PM EDT
Civil Twilight 5:31 AM EDT 9:44 PM EDT
Nautical Twilight 4:49 AM EDT 10:27 PM EDT
Astronomical Twilight 3:58 AM EDT 11:17 PM EDT
Moon 8:24 PM EDT (6/22) 5:17 AM EDT (6/22)
Length of Visible Light 16h 12m
Length of Day
15h 05m
Waxing Gibbous, 99% of the Moon is Illuminated
Jun 22
Waxing Gibbous
Jun 23
Full
Jun 30
Last Quarter
Jul 8
New
Jul 15
First Quarter

Hourly Weather History & Observations

Time (EDT) Temp. Heat Index Dew Point Humidity Pressure Visibility Wind Dir Wind Speed Gust Speed Precip Events Conditions
12:53 AM 71.1 °F - 60.1 °F 68% 30.13 in 10.0 mi SSE 4.6 mph - N/A   Clear
1:53 AM 71.1 °F - 60.1 °F 68% 30.12 in 9.0 mi South 6.9 mph - N/A   Clear
2:53 AM 71.1 °F - 60.1 °F 68% 30.11 in 10.0 mi South 5.8 mph - N/A   Clear
3:53 AM 70.0 °F - 61.0 °F 73% 30.09 in 9.0 mi South 6.9 mph - N/A   Clear
4:53 AM 72.0 °F - 62.1 °F 71% 30.08 in 10.0 mi South 8.1 mph - N/A   Clear
5:53 AM 71.1 °F - 62.1 °F 73% 30.09 in 9.0 mi South 8.1 mph - N/A   Clear
6:53 AM 72.0 °F - 63.0 °F 73% 30.10 in 9.0 mi South 9.2 mph - N/A   Partly Cloudy
7:53 AM 73.9 °F - 64.0 °F 71% 30.11 in 9.0 mi South 9.2 mph - N/A   Partly Cloudy
8:53 AM 79.0 °F - 66.0 °F 64% 30.12 in 10.0 mi SSW 9.2 mph - N/A   Clear
9:53 AM 81.0 °F 83.3 °F 66.9 °F 62% 30.13 in 10.0 mi SW 10.4 mph - N/A   Clear
10:53 AM 84.0 °F 87.0 °F 68.0 °F 58% 30.13 in 10.0 mi WSW 13.8 mph - N/A   Clear
11:53 AM 87.1 °F 89.9 °F 66.9 °F 51% 30.13 in 10.0 mi WSW 12.7 mph 18.4 mph N/A   Clear
12:53 PM 88.0 °F 90.7 °F 66.9 °F 49% 30.12 in 10.0 mi West 12.7 mph - N/A   Clear
1:53 PM 90.0 °F 92.4 °F 66.0 °F 45% 30.11 in 10.0 mi SW 10.4 mph - N/A   Scattered Clouds
2:53 PM 88.0 °F 90.7 °F 66.9 °F 49% 30.09 in 10.0 mi West 12.7 mph - N/A   Clear
3:53 PM 89.1 °F 89.0 °F 61.0 °F 39% 30.07 in 10.0 mi SW 8.1 mph - N/A   Clear
4:53 PM 88.0 °F 91.4 °F 68.0 °F 51% 30.03 in 10.0 mi South 11.5 mph 21.9 mph N/A   Scattered Clouds
5:53 PM 88.0 °F 90.7 °F 66.9 °F 49% 30.04 in 10.0 mi South 13.8 mph - N/A   Partly Cloudy
6:53 PM 84.9 °F 87.1 °F 66.0 °F 53% 30.02 in 10.0 mi SSW 13.8 mph 21.9 mph N/A   Clear
7:53 PM 84.9 °F 88.2 °F 68.0 °F 57% 30.04 in 10.0 mi SW 13.8 mph 24.2 mph N/A   Clear
8:53 PM 81.0 °F 82.2 °F 63.0 °F 54% 30.07 in 10.0 mi WSW 10.4 mph - N/A   Clear
9:53 PM 79.0 °F - 63.0 °F 58% 30.09 in 10.0 mi SSW 4.6 mph - N/A   Clear
10:53 PM 77.0 °F - 63.0 °F 62% 30.09 in 10.0 mi South 3.5 mph - N/A   Clear
11:53 PM 75.0 °F - 63.0 °F 66% 30.07 in 10.0 mi South 5.8 mph - N/A   Clear